EZY576N EGKK-EGPH

Flight info

Callsign EZY576N
Flight time 1h 8m
Altitude 30000
Route LAM L10 BPK UN601 RIBEL DCT INPIP
Aircraft A320/M-SDE2E3FGHIRWXY/LB1

Departure

Time 2026-04-14 11:49
Airport London Gatwick Airport (EGKK)

Arrival

Time 2026-04-14 12:58
Airport Edinburgh Airport (EGPH)
Time Latitude Longitude Altitude Speed Heading
2026-04-14 11:17 51.15573 -0.17756 211 ft 0 kts 347°
2026-04-14 11:34 51.15556 -0.17750 215 ft 3 kts 354°
2026-04-14 11:34 51.15536 -0.17750 204 ft 3 kts
2026-04-14 11:34 51.15517 -0.17757 204 ft 3 kts 30°
2026-04-14 11:34 51.15503 -0.17775 210 ft 3 kts 66°
2026-04-14 11:35 51.15500 -0.17786 207 ft 0 kts 78°
2026-04-14 11:42 51.15509 -0.17728 207 ft 9 kts 77°
2026-04-14 11:42 51.15521 -0.17637 208 ft 8 kts 77°
2026-04-14 11:42 51.15532 -0.17561 207 ft 6 kts 79°
2026-04-14 11:43 51.15539 -0.17499 206 ft 5 kts 79°
2026-04-14 11:43 51.15507 -0.17431 207 ft 12 kts 146°
2026-04-14 11:43 51.15416 -0.17393 204 ft 14 kts 167°
2026-04-14 11:43 51.15319 -0.17346 208 ft 15 kts 140°
2026-04-14 11:44 51.15324 -0.17196 204 ft 13 kts 77°
2026-04-14 11:44 51.15342 -0.17061 204 ft 12 kts 78°
2026-04-14 11:44 51.15357 -0.16945 204 ft 10 kts 78°
2026-04-14 11:44 51.15367 -0.16847 208 ft 8 kts 98°
2026-04-14 11:45 51.15327 -0.16804 211 ft 8 kts 176°
2026-04-14 11:45 51.15269 -0.16818 208 ft 9 kts 180°
2026-04-14 11:45 51.15203 -0.16800 207 ft 10 kts 166°
2026-04-14 11:45 51.15125 -0.16801 202 ft 12 kts 220°
2026-04-14 11:46 51.15111 -0.16866 210 ft 0 kts 260°
2026-04-14 11:48 51.15110 -0.16869 209 ft 3 kts 260°
2026-04-14 11:48 51.15071 -0.17169 207 ft 62 kts 257°
2026-04-14 11:49 51.14929 -0.18183 207 ft 123 kts 257°
2026-04-14 11:49 51.14708 -0.19773 248 ft 166 kts 255°
2026-04-14 11:49 51.14481 -0.21675 643 ft 183 kts 258°
2026-04-14 11:49 51.14239 -0.23700 1314 ft 188 kts 251°
2026-04-14 11:50 51.13975 -0.25764 1811 ft 200 kts 252°
2026-04-14 11:50 51.13743 -0.28089 2117 ft 227 kts 266°
2026-04-14 11:50 51.14292 -0.30507 2935 ft 242 kts 305°
2026-04-14 11:51 51.17405 -0.32077 4672 ft 255 kts 19°
2026-04-14 11:51 51.18858 -0.30482 5437 ft 257 kts 57°
2026-04-14 11:51 51.19762 -0.27912 5871 ft 278 kts 64°
2026-04-14 11:51 51.21046 -0.25526 6469 ft 292 kts 34°
2026-04-14 11:52 51.22881 -0.24119 7240 ft 294 kts 18°
2026-04-14 11:52 51.24827 -0.23068 8112 ft 296 kts 16°
2026-04-14 11:52 51.26796 -0.22039 8924 ft 300 kts 16°
2026-04-14 11:52 51.28793 -0.21004 9785 ft 302 kts 17°
2026-04-14 11:53 51.30810 -0.19966 10420 ft 313 kts 17°
2026-04-14 11:53 51.32960 -0.18853 10632 ft 336 kts 17°
2026-04-14 11:53 51.35264 -0.17954 11160 ft 344 kts
2026-04-14 11:53 51.37655 -0.17523 11857 ft 348 kts
2026-04-14 11:54 51.40085 -0.17078 12559 ft 353 kts
2026-04-14 11:54 51.42537 -0.16626 12992 ft 355 kts
2026-04-14 11:54 51.44991 -0.16172 13100 ft 356 kts
2026-04-14 11:54 51.47453 -0.15716 13118 ft 356 kts
2026-04-14 11:55 51.49913 -0.15260 13117 ft 356 kts
2026-04-14 11:55 51.52374 -0.14805 13117 ft 356 kts
2026-04-14 11:55 51.54833 -0.14357 13115 ft 356 kts
2026-04-14 11:55 51.57296 -0.13912 13115 ft 356 kts
2026-04-14 11:56 51.59756 -0.13563 13133 ft 355 kts
2026-04-14 11:56 51.62221 -0.13163 13113 ft 355 kts
2026-04-14 11:56 51.64668 -0.12692 13111 ft 355 kts
2026-04-14 11:56 51.67123 -0.12196 13112 ft 355 kts
2026-04-14 11:57 51.69576 -0.11703 13111 ft 354 kts
2026-04-14 11:57 51.72026 -0.11288 13111 ft 354 kts 359°
2026-04-14 11:57 51.74493 -0.11569 13112 ft 350 kts 346°
2026-04-14 11:57 51.76791 -0.12631 13112 ft 346 kts 334°
2026-04-14 11:58 51.78916 -0.14396 13112 ft 343 kts 325°
2026-04-14 11:58 51.80967 -0.16367 13125 ft 343 kts 326°
2026-04-14 11:58 51.83022 -0.18331 13112 ft 342 kts 326°
2026-04-14 11:58 51.85071 -0.20283 13111 ft 342 kts 326°
2026-04-14 11:59 51.87123 -0.22234 13111 ft 342 kts 326°
2026-04-14 11:59 51.89173 -0.24193 13111 ft 342 kts 326°
2026-04-14 11:59 51.91247 -0.26172 13111 ft 342 kts 326°
2026-04-14 11:59 51.93268 -0.28102 13112 ft 342 kts 326°
2026-04-14 12:00 51.95338 -0.30085 13111 ft 342 kts 326°
2026-04-14 12:00 51.97384 -0.32047 13112 ft 342 kts 326°
2026-04-14 12:00 51.99406 -0.33985 13110 ft 342 kts 326°
2026-04-14 12:00 52.01455 -0.35952 13110 ft 342 kts 326°
2026-04-14 12:01 52.03526 -0.37948 13088 ft 342 kts 326°
2026-04-14 12:01 52.05571 -0.39926 13088 ft 342 kts 326°
2026-04-14 12:01 52.07592 -0.41881 13085 ft 342 kts 326°
2026-04-14 12:01 52.09639 -0.43859 13085 ft 342 kts 326°
2026-04-14 12:02 52.11683 -0.45835 13085 ft 342 kts 326°
2026-04-14 12:02 52.13728 -0.47813 13085 ft 342 kts 326°
2026-04-14 12:02 52.15773 -0.49792 13084 ft 342 kts 326°
2026-04-14 12:02 52.17814 -0.51769 13085 ft 342 kts 326°
2026-04-14 12:03 52.19858 -0.53753 13085 ft 342 kts 326°
2026-04-14 12:03 52.21904 -0.55741 13085 ft 342 kts 326°
2026-04-14 12:03 52.23947 -0.57729 13084 ft 342 kts 326°
2026-04-14 12:03 52.25991 -0.59718 13079 ft 342 kts 326°
2026-04-14 12:04 52.28033 -0.61704 13078 ft 342 kts 326°
2026-04-14 12:04 52.30071 -0.63691 13076 ft 340 kts 326°
2026-04-14 12:04 52.32102 -0.65674 13074 ft 340 kts 326°
2026-04-14 12:04 52.34127 -0.67659 13075 ft 340 kts 326°
2026-04-14 12:05 52.36161 -0.69654 13071 ft 340 kts 326°
2026-04-14 12:05 52.38187 -0.71643 13070 ft 340 kts 326°
2026-04-14 12:05 52.40215 -0.73638 13073 ft 340 kts 326°
2026-04-14 12:05 52.42244 -0.75632 13074 ft 340 kts 326°
2026-04-14 12:06 52.44274 -0.77619 13074 ft 340 kts 326°
2026-04-14 12:06 52.46303 -0.79606 13076 ft 340 kts 326°
2026-04-14 12:06 52.48330 -0.81603 13079 ft 340 kts 326°
2026-04-14 12:06 52.50352 -0.83602 13078 ft 340 kts 326°
2026-04-14 12:07 52.52379 -0.85608 13089 ft 340 kts 326°
2026-04-14 12:07 52.54417 -0.87626 13624 ft 343 kts 326°
2026-04-14 12:07 52.56464 -0.89660 14374 ft 344 kts 326°
2026-04-14 12:07 52.58522 -0.91702 14943 ft 342 kts 326°
2026-04-14 12:08 52.60538 -0.93697 15891 ft 334 kts 326°
2026-04-14 12:08 52.62507 -0.95647 16815 ft 327 kts 326°
2026-04-14 12:08 52.64430 -0.97550 17821 ft 318 kts 326°
2026-04-14 12:08 52.66297 -0.99403 18779 ft 308 kts 326°
2026-04-14 12:09 52.68099 -1.01195 19671 ft 298 kts 325°
2026-04-14 12:09 52.69839 -1.02933 20601 ft 287 kts 324°
2026-04-14 12:09 52.71507 -1.04598 21568 ft 274 kts 324°
2026-04-14 12:09 52.73093 -1.06178 22564 ft 258 kts 323°
2026-04-14 12:10 52.74131 -1.07214 23055 ft 259 kts 323°
2026-04-14 12:10 52.75680 -1.08771 23536 ft 262 kts 323°
2026-04-14 12:10 52.77237 -1.10342 23992 ft 264 kts 323°
2026-04-14 12:10 52.78808 -1.11924 24435 ft 265 kts 323°
2026-04-14 12:11 52.80383 -1.13505 24891 ft 265 kts 323°
2026-04-14 12:11 52.81963 -1.15086 25344 ft 266 kts 323°
2026-04-14 12:11 52.83545 -1.16670 25799 ft 266 kts 323°
2026-04-14 12:11 52.85126 -1.18254 26241 ft 266 kts 323°
2026-04-14 12:12 52.86716 -1.19851 26678 ft 267 kts 323°
2026-04-14 12:12 52.88303 -1.21450 27121 ft 267 kts 323°
2026-04-14 12:12 52.89888 -1.23050 27563 ft 268 kts 323°
2026-04-14 12:12 52.91478 -1.24661 27975 ft 268 kts 323°
2026-04-14 12:13 52.93072 -1.26276 28393 ft 269 kts 323°
2026-04-14 12:13 52.94670 -1.27896 28806 ft 270 kts 323°
2026-04-14 12:13 52.96272 -1.29524 29200 ft 270 kts 323°
2026-04-14 12:13 52.97878 -1.31156 29602 ft 271 kts 323°
2026-04-14 12:14 52.99491 -1.32791 29972 ft 273 kts 323°
2026-04-14 12:14 53.01139 -1.34467 30065 ft 284 kts 323°
2026-04-14 12:14 53.02861 -1.36224 30068 ft 297 kts 323°
2026-04-14 12:14 53.04657 -1.38058 30067 ft 309 kts 323°
2026-04-14 12:15 53.06526 -1.39965 30066 ft 321 kts 324°
2026-04-14 12:15 53.08465 -1.41941 30064 ft 334 kts 324°
2026-04-14 12:15 53.10482 -1.43994 30063 ft 346 kts 324°
2026-04-14 12:15 53.12565 -1.46113 30063 ft 354 kts 324°
2026-04-14 12:16 53.16792 -1.50415 30065 ft 357 kts 324°
2026-04-14 12:16 53.21033 -1.54754 30058 ft 358 kts 324°
2026-04-14 12:17 53.25270 -1.59104 30078 ft 358 kts 324°
2026-04-14 12:17 53.29483 -1.63446 30064 ft 358 kts 324°
2026-04-14 12:18 53.33721 -1.67820 30052 ft 358 kts 324°
2026-04-14 12:18 53.37950 -1.72196 30046 ft 357 kts 324°
2026-04-14 12:19 53.42174 -1.76573 30037 ft 357 kts 324°
2026-04-14 12:19 53.46397 -1.80964 30045 ft 357 kts 323°
2026-04-14 12:20 53.50617 -1.85363 30028 ft 357 kts 324°
2026-04-14 12:20 53.54840 -1.89758 30024 ft 357 kts 324°
2026-04-14 12:21 53.59056 -1.94166 30022 ft 357 kts 323°
2026-04-14 12:21 53.63269 -1.98586 30018 ft 357 kts 323°
2026-04-14 12:22 53.67485 -2.03027 30034 ft 358 kts 323°
2026-04-14 12:22 53.71703 -2.07480 30020 ft 357 kts 323°
2026-04-14 12:23 53.76077 -2.11480 30021 ft 363 kts 332°
2026-04-14 12:23 53.80768 -2.14656 30017 ft 363 kts 332°
2026-04-14 12:24 53.85453 -2.17860 30014 ft 363 kts 332°
2026-04-14 12:24 53.90137 -2.21075 30010 ft 363 kts 332°
2026-04-14 12:25 53.94821 -2.24287 30004 ft 363 kts 332°
2026-04-14 12:25 53.99506 -2.27515 30028 ft 363 kts 332°
2026-04-14 12:26 54.04194 -2.30736 30015 ft 364 kts 332°
2026-04-14 12:26 54.08890 -2.33966 30004 ft 364 kts 332°
2026-04-14 12:27 54.13582 -2.37225 30003 ft 364 kts 332°
2026-04-14 12:27 54.18275 -2.40491 29994 ft 364 kts 332°
2026-04-14 12:28 54.22976 -2.43750 30028 ft 365 kts 331°
2026-04-14 12:28 54.27677 -2.47025 30012 ft 365 kts 331°
2026-04-14 12:29 54.32376 -2.50323 30009 ft 366 kts 331°
2026-04-14 12:29 54.37092 -2.53631 30004 ft 366 kts 331°
2026-04-14 12:30 54.41799 -2.56937 29992 ft 366 kts 331°
2026-04-14 12:30 54.46517 -2.60251 29994 ft 366 kts 331°
2026-04-14 12:31 54.51232 -2.63572 30006 ft 366 kts 331°
2026-04-14 12:31 54.55940 -2.66912 29998 ft 366 kts 331°
2026-04-14 12:32 54.58282 -2.68582 29855 ft 362 kts 331°
2026-04-14 12:32 54.60592 -2.70223 29555 ft 355 kts 330°
2026-04-14 12:32 54.62863 -2.71836 29274 ft 352 kts 330°
2026-04-14 12:32 54.65124 -2.73447 28979 ft 351 kts 330°
2026-04-14 12:33 54.67378 -2.75056 28717 ft 350 kts 330°
2026-04-14 12:33 54.69626 -2.76663 28450 ft 349 kts 331°
2026-04-14 12:33 54.71869 -2.78268 28176 ft 348 kts 331°
2026-04-14 12:33 54.74104 -2.79866 27945 ft 347 kts 331°
2026-04-14 12:34 54.76336 -2.81461 27676 ft 347 kts 331°
2026-04-14 12:34 54.78564 -2.83058 27410 ft 346 kts 331°
2026-04-14 12:34 54.80777 -2.84649 27161 ft 342 kts 331°
2026-04-14 12:34 54.82958 -2.86216 26835 ft 336 kts 331°
2026-04-14 12:35 54.85106 -2.87763 26450 ft 332 kts 331°
2026-04-14 12:35 54.87222 -2.89293 26071 ft 328 kts 331°
2026-04-14 12:35 54.89335 -2.90824 25631 ft 332 kts 331°
2026-04-14 12:35 54.91484 -2.92385 25170 ft 337 kts 332°
2026-04-14 12:36 54.93655 -2.93955 24688 ft 338 kts 332°
2026-04-14 12:36 54.95822 -2.95519 24218 ft 338 kts 332°
2026-04-14 12:36 54.97993 -2.97087 23755 ft 338 kts 332°
2026-04-14 12:36 55.00166 -2.98658 23216 ft 338 kts 332°
2026-04-14 12:37 55.02333 -3.00230 22743 ft 336 kts 332°
2026-04-14 12:37 55.04482 -3.01784 22271 ft 334 kts 332°
2026-04-14 12:37 55.06626 -3.03346 21809 ft 333 kts 332°
2026-04-14 12:37 55.08756 -3.04901 21346 ft 332 kts 332°
2026-04-14 12:38 55.13008 -3.08009 20412 ft 331 kts 333°
2026-04-14 12:38 55.15129 -3.09559 20057 ft 328 kts 333°
2026-04-14 12:38 55.17228 -3.11094 19994 ft 327 kts 333°
2026-04-14 12:39 55.19332 -3.12637 20003 ft 327 kts 333°
2026-04-14 12:39 55.21431 -3.14180 20004 ft 327 kts 333°
2026-04-14 12:39 55.23508 -3.15708 20016 ft 327 kts 333°
2026-04-14 12:39 55.25607 -3.17253 20006 ft 327 kts 333°
2026-04-14 12:40 55.27706 -3.18799 20002 ft 326 kts 333°
2026-04-14 12:40 55.29888 -3.19933 19881 ft 331 kts 346°
2026-04-14 12:40 55.32208 -3.20115 19381 ft 337 kts
2026-04-14 12:40 55.34546 -3.19735 18787 ft 336 kts
2026-04-14 12:41 55.36878 -3.19348 18080 ft 335 kts
2026-04-14 12:41 55.39193 -3.18968 17331 ft 333 kts
2026-04-14 12:41 55.41492 -3.18599 16623 ft 330 kts
2026-04-14 12:41 55.43772 -3.18241 15947 ft 328 kts
2026-04-14 12:42 55.46043 -3.17891 15310 ft 326 kts
2026-04-14 12:42 55.48300 -3.17541 14686 ft 324 kts
2026-04-14 12:42 55.50538 -3.17191 14110 ft 321 kts
2026-04-14 12:42 55.52755 -3.16845 13488 ft 319 kts
2026-04-14 12:43 55.54954 -3.16499 12843 ft 316 kts
2026-04-14 12:43 55.57137 -3.16150 12179 ft 314 kts
2026-04-14 12:43 55.59305 -3.15802 11555 ft 312 kts
2026-04-14 12:43 55.61453 -3.15466 10966 ft 309 kts
2026-04-14 12:44 55.63590 -3.15131 10355 ft 307 kts
2026-04-14 12:44 55.65674 -3.15232 9943 ft 291 kts 342°
2026-04-14 12:44 55.67462 -3.16562 9590 ft 272 kts 321°
2026-04-14 12:45 55.69507 -3.21703 8486 ft 252 kts 279°
2026-04-14 12:45 55.69637 -3.24749 7880 ft 246 kts 260°
2026-04-14 12:45 55.69234 -3.27657 7295 ft 241 kts 249°
2026-04-14 12:45 55.68718 -3.30493 6722 ft 242 kts 250°
2026-04-14 12:46 55.68217 -3.33265 6594 ft 235 kts 249°
2026-04-14 12:46 55.67712 -3.36037 6529 ft 237 kts 249°
2026-04-14 12:46 55.67202 -3.38820 6450 ft 239 kts 249°
2026-04-14 12:46 55.66691 -3.41615 6373 ft 238 kts 249°
2026-04-14 12:47 55.66180 -3.44407 6296 ft 238 kts 249°
2026-04-14 12:47 55.65668 -3.47195 6224 ft 238 kts 249°
2026-04-14 12:47 55.65159 -3.49976 6139 ft 237 kts 249°
2026-04-14 12:47 55.64656 -3.52723 6078 ft 229 kts 249°
2026-04-14 12:48 55.64178 -3.55349 6005 ft 221 kts 249°
2026-04-14 12:48 55.64022 -3.58056 5900 ft 228 kts 278°
2026-04-14 12:48 55.64807 -3.60512 5803 ft 239 kts 316°
2026-04-14 12:48 55.66301 -3.61728 5688 ft 237 kts 345°
2026-04-14 12:49 55.67847 -3.62550 5573 ft 227 kts 332°
2026-04-14 12:49 55.69134 -3.64056 5464 ft 219 kts 317°
2026-04-14 12:49 55.70317 -3.65742 5371 ft 215 kts 318°
2026-04-14 12:49 55.71457 -3.67342 5255 ft 203 kts 317°
2026-04-14 12:50 55.72180 -3.68359 5171 ft 197 kts 317°
2026-04-14 12:50 55.74210 -3.71254 4990 ft 179 kts 317°
2026-04-14 12:50 55.75191 -3.72677 4892 ft 185 kts 316°
2026-04-14 12:51 55.76152 -3.74204 4784 ft 185 kts 311°
2026-04-14 12:51 55.77066 -3.75816 4685 ft 185 kts 310°
2026-04-14 12:51 55.78099 -3.77196 4598 ft 189 kts 333°
2026-04-14 12:51 55.79377 -3.77732 4505 ft 190 kts
2026-04-14 12:52 55.80654 -3.77285 4422 ft 187 kts 28°
2026-04-14 12:52 55.81688 -3.75981 4331 ft 180 kts 54°
2026-04-14 12:52 55.82373 -3.74172 4294 ft 176 kts 65°
2026-04-14 12:52 55.83014 -3.72311 4182 ft 176 kts 64°
2026-04-14 12:53 55.83652 -3.70459 4088 ft 175 kts 64°
2026-04-14 12:53 55.84290 -3.68605 3995 ft 175 kts 64°
2026-04-14 12:53 55.84925 -3.66759 3796 ft 174 kts 64°
2026-04-14 12:53 55.85552 -3.64931 3579 ft 172 kts 64°
2026-04-14 12:54 55.86175 -3.63118 3351 ft 171 kts 64°
2026-04-14 12:54 55.86790 -3.61322 3117 ft 170 kts 64°
2026-04-14 12:54 55.87405 -3.59528 2883 ft 170 kts 64°
2026-04-14 12:54 55.88022 -3.57725 2649 ft 171 kts 63°
2026-04-14 12:55 55.88637 -3.55927 2426 ft 169 kts 63°
2026-04-14 12:55 55.89239 -3.54166 2193 ft 165 kts 64°
2026-04-14 12:55 55.89832 -3.52432 1957 ft 163 kts 64°
2026-04-14 12:55 55.90421 -3.50705 1741 ft 163 kts 64°
2026-04-14 12:56 55.90997 -3.49019 1520 ft 155 kts 63°
2026-04-14 12:56 55.91543 -3.47418 1299 ft 147 kts 65°
2026-04-14 12:56 55.92067 -3.45878 1096 ft 143 kts 65°
2026-04-14 12:56 55.92577 -3.44381 897 ft 140 kts 60°
2026-04-14 12:57 55.93080 -3.42900 702 ft 138 kts 60°
2026-04-14 12:57 55.93575 -3.41444 525 ft 136 kts 59°
2026-04-14 12:57 55.94083 -3.39923 319 ft 146 kts 66°
2026-04-14 12:57 55.94624 -3.38356 143 ft 148 kts 62°
2026-04-14 12:58 55.95122 -3.36863 110 ft 127 kts 57°
2026-04-14 12:58 55.95439 -3.35958 110 ft 42 kts 59°
2026-04-14 12:58 55.95506 -3.35758 113 ft 13 kts 58°
2026-04-14 12:58 55.95548 -3.35631 113 ft 11 kts 63°
2026-04-14 12:59 55.95553 -3.35508 112 ft 9 kts 124°
2026-04-14 12:59 55.95512 -3.35456 114 ft 6 kts 147°
2026-04-14 12:59 55.95463 -3.35405 112 ft 9 kts 158°
2026-04-14 12:59 55.95410 -3.35459 115 ft 11 kts 240°
2026-04-14 13:00 55.95370 -3.35584 116 ft 13 kts 239°
2026-04-14 13:00 55.95321 -3.35730 111 ft 15 kts 239°
2026-04-14 13:00 55.95264 -3.35897 114 ft 16 kts 239°
2026-04-14 13:00 55.95204 -3.36074 114 ft 17 kts 239°
2026-04-14 13:01 55.95142 -3.36258 115 ft 18 kts 240°
2026-04-14 13:01 55.95078 -3.36449 114 ft 18 kts 238°
2026-04-14 13:01 55.95011 -3.36650 114 ft 19 kts 239°
2026-04-14 13:01 55.94954 -3.36804 114 ft 12 kts 230°
2026-04-14 13:02 55.94879 -3.36786 113 ft 12 kts 158°
2026-04-14 13:02 55.94793 -3.36770 116 ft 13 kts 165°
2026-04-14 13:02 55.94722 -3.36738 115 ft 6 kts 175°
2026-04-14 13:02 55.94700 -3.36686 114 ft 6 kts 88°
2026-04-14 13:03 55.94702 -3.36633 115 ft 0 kts 89°
2026-04-14 13:03 55.94702 -3.36615 116 ft 0 kts 90°
2026-04-14 13:03 55.94702 -3.36607 116 ft 1 kts 90°
2026-04-14 13:03 55.94702 -3.36606 116 ft 0 kts 90°